Location: Bernadets
(43.3537°N, 0.3167°E)
Time: 08:14:16
(UTC+00:00)

Iridium 4 Rocket - Pass Details

Date: 24 October 2021
Orbit: 586 x 903 km, 86.9° (Epoch: 02 December)

Event Time Altitude Azimuth Distance (km) Brightness Sun altitude
Rises 18:39:03 0° 351° (N) 3,003 6.7 -18.4°
Reaches altitude 10° 18:41:17 10° 345° (NNW) 2,129 6.0 -18.8°
Maximum altitude 18:45:48 47° 273° (W) 957 4.4 -19.6°
Drops below altitude 10° 18:50:42 10° 200° (SSW) 2,310 6.2 -20.5°
Sets 18:53:13 0° 195° (SSW) 3,285 6.9 -21.0°
